Starlink 6316

operational
NORAD ID: 57335 Int'l Des: 2023-099 Owner: SPXS Country: US Constellation: starlink
LEOCIRCULAR

Starlink 6316について

説明を読み込み中...

リアルタイム位置

3D地球を読み込み中...

次回通過

高度履歴

Altitude vs Time

uPlot chart will show altitude changes over time

軌道要素

1 57335U 23099H 25305.50230994 -.00000968 00000-0 -56576-4 0 9991
2 57335 43.0063 225.5314 0001733 266.1272 93.9372 15.02527314126836
Epoch: Nov 1, 2025 • Age: 27 hours

現在のステータス

高度 569.7 km
速度 7.58 km/s
衛星直下点 -38.96°S, 163.2°W
打ち上げ日 Jul 16, 2023
運用期間 2.2 years
タイプ internet

技術仕様

分類 Payload
質量 305.00 kg
乾燥質量 290.00 kg
総質量 305.00 kg
長さ 0.20 m
直径 2.80 m
スパン 9.00 m
形状 Box + pan
製造者 SPXS
バスタイプ Starlink
フェーズステータス In Orbit
所有者/国 SPXS/US

大規模コンステレーション

Loading constellations...